Regional Weather Roundup
Issued by NWS Upton, NY

Current Version | Previous Version | Text Only | Print | Product List | Glossary On
Versions: 1 2 3 4 5 6 7 8 9 10 11 12 13 14 15 16 17 18 19 20 21 22 23 24 25 26 27 28 29 30 31 32 33 34 35 36 37 38 39 40 41 42 43 44 45 46 47 48 49 50
613
ASUS41 KOKX 070904
RWROKX

REGIONAL WEATHER ROUNDUP
NATIONAL WEATHER SERVICE NEW YORK NY
400 AM EST SUN FEB 07 2016

NOTE: "FAIR" INDICATES FEW OR NO CLOUDS BELOW 12,000 FEET WITH NO
SIGNIFICANT WEATHER AND/OR OBSTRUCTIONS TO VISIBILITY.

NYZ071-072-176-178-NJZ106-104-071000-
NEW YORK CITY METRO AREA


CITY           SKY/WX    TMP DP  RH WIND       PRES   REMARKS
CENTRAL PARK   CLEAR     35  21  56 W7        30.23F WCI  29
LAGUARDIA APRT PTCLDY    35  23  61 S5        30.21F WCI  31
KENNEDY INTL   CLEAR     33  26  75 W6        30.23F WCI  28
NEWARK/LIBERTY PTCLDY    30  23  75 W5        30.22F WCI  25
BRNX BOT. GARD   N/A     34  23  64 SW5       30.21F WCI  30
TETERBORO      CLEAR     28  21  75 CALM      30.21F
$$

NYZ177-179-078>081-071000-
LONG ISLAND NEW YORK

CITY           SKY/WX    TMP DP  RH WIND       PRES   REMARKS
FARMINGDALE    CLEAR     25  21  85 SW3       30.21F
ISLIP          CLEAR     22  21  96 SW3       30.20F
SHIRLEY        CLEAR     25  22  88 W3        30.22F
RIVERHEAD        N/A     32  23  69 NW1       30.23F
WESTHAMPTON    CLEAR     15  13  91 CALM      30.23F
EAST HAMPTON   FAIR      21  20  96 CALM      30.22F
MONTAUK POINT    N/A     35  27  72 SW5       30.22F WCI  31
$$

NYZ052-065-067-071000-
HUDSON VALLEY

CITY           SKY/WX    TMP DP  RH WIND       PRES   REMARKS
WHITE PLAINS   CLEAR     28  20  71 CALM      30.18F
NEWBURGH       CLEAR     23  19  86 CALM      30.19F
MONTGOMERY     CLEAR     22  18  85 SW3       30.18F
POUGHKEEPSIE   CLEAR     23  18  81 CALM      30.19F
ALBANY         MOCLDY    32  19  58 S8        30.16S WCI  25
$$

NJZ001-105-106-008-010-013-015-019>022-104-071000-
NEW JERSEY

CITY           SKY/WX    TMP DP  RH WIND       PRES   REMARKS
NEWARK/LIBERTY PTCLDY    30  23  75 W5        30.22F WCI  25
TETERBORO      CLEAR     28  21  75 CALM      30.21F
CALDWELL       CLEAR     28  22  78 CALM      30.21F
MORRISTOWN     CLEAR     21  19  93 CALM      30.23S
SOMERVILLE     CLEAR     20  17  88 CALM      30.20F
SUSSEX         CLEAR     22  18  85 CALM      30.18F
ANDOVER          N/A     22  19  89 CALM      30.19F
TRENTON        CLEAR     25  21  85 CALM      30.20F
MILLVILLE      CLOUDY    24  21  88 CALM      30.22F
ATLANTIC CITY  PTCLDY    24  22  91 CALM      30.22F
WRIGHTSTOWN    CLOUDY    24  24 100 VRB1      30.18F
TOMS RIVER     PTCLDY    21  18  86 CALM      30.22F
BELMAR         CLEAR     30  19  64 SW5       30.21F WCI  25
$$

PAZ047>061-062-071-071000-
EASTERN PENNSYLVANIA

CITY           SKY/WX    TMP DP  RH WIND       PRES   REMARKS
PHILADELPHIA   PTCLDY    31  23  72 NW3       30.22F
ALLENTOWN      CLEAR     23  18  81 NW5       30.20F WCI  17
SCRANTON       CLEAR     25  17  72 CALM      30.16S
$$

CTZ002-004>006-009-010-012-RIZ004-006-007-MAZ004-011-015-071000-
SOUTHERN NEW ENGLAND
 IN CT

CITY           SKY/WX    TMP DP  RH WIND       PRES   REMARKS
BRADLEY INTL   CLEAR     24  20  84 S5        30.18S WCI  18
HARTFORD       CLEAR     25  22  88 CALM      30.20S
DANBURY        CLEAR     22  16  78 CALM      30.20F
WTRBRY/OXFORD  CLEAR     28  12  50 CALM      30.18F
BRIDGEPORT     CLEAR     32  24  72 W6        30.21F WCI  26
MERIDEN        CLEAR     18  14  84 CALM      30.21S
NEW HAVEN      CLEAR     21  19  92 CALM      30.21F
CHESTER        FAIR      32  25  74 W6        30.19F WCI  26
GROTON         CLEAR     25  25 100 CALM      30.20F
WILLIMANTIC    CLEAR     15  11  83 CALM      30.20F

 IN RI

CITY           SKY/WX    TMP DP  RH WIND       PRES   REMARKS
PROVIDENCE     CLEAR     29  24  82 W7        30.20S WCI  22
BLOCK ISLAND   CLEAR     36  27  69 W10       30.20F WCI  28
WESTERLY       CLEAR     27  24  89 CALM      30.21F

 IN MA

CITY           SKY/WX    TMP DP  RH WIND       PRES   REMARKS
BOSTON         CLEAR     30  23  75 SW10      30.17S WCI  21
WORCESTER      CLEAR     26  17  68 W10       30.13R WCI  16
WESTFIELD      CLEAR     20  17  88 N5        30.17S WCI  13
PROVINCETOWN   CLEAR     34  29  82 SW13      30.19S WCI  25
NANTUCKET      PTCLDY    35  29  78 W7        30.22S WCI  29
$$

ANZ330-335-338-340-345-350-353-355-071000-
COASTAL MARINE OBSERVATIONS


STATION/POSITION TIME  SKY/WX   TEMP    WIND        PRES    VSBY  WAVE
                                AIR SEA DIR/SP/G                  HT/PER
                 (UTC)          (F)     (DEG/KT/KT) (MB)    (MI)  (FT/S)
NY HARB ENTRANCE 0750            39 43  240/ 10/ 12 1023.8          2/ 8
4S FIRE IS       NOT AVBL
20S FIRE ISLAND  0750            40 43  260/ 12/ 14 1023.9          3/ 4
GREAT SOUTH BAY  NOT AVBL
23SW MTP         0850            41 45  270/ 14/ 16 1022.8          3/ 5
HUDSON CANYON    0750            42 51              1023.8          2/10
KINGS POINT      0800            36 39  230/  6/  7 1023.4
EXECUTION ROCKS  NOT AVBL
CENTRAL LI SOUND 0800            38     240/ 10/ 12   N/A           2/ 3
EASTERN LI SOUND 0800            39 42  250/ 14/ 16   N/A
ROBBINS REEF     0800            34     260/  6/  8 1023.2
$$


>>>>>>>>>>>>>>>>>>>>>>>>>>>> KEY <<<<<<<<<<<<<<<<<<<<<<<<<<<
>                                                          <
>     SKY/WX - SKY CONDITION/PRESENT WEATHER               <
>     TMP    - TEMPERATURE IN FAHRENHEIT                   <
>     DP     - DEWPOINT IN FAHRENHEIT                      <
>     RH     - RELATIVE HUMIDITY IN PERCENT                <
>     WIND   - DIRECTION AND SPEED IN MPH                  <
>     PRES   - MEAN SEA LEVEL PRESSURE IN INCHES OF HG     <
>     WCI    - WIND CHILL INDEX                            <
>     VSB    - VISIBILITY IN MILES                         <
>     HX     - HEAT INDEX                                  <
>     TC     - TEMPERATURE IN CELSIUS                      <
>     VRB    - VARIABLE WIND DIRECTION                     <
>                                                          <
>>>>>>>>>>>>>>>>>>>>>>>>>>>> KEY <<<<<<<<<<<<<<<<<<<<<<<<<<<






USA.gov is the U.S. government's official web portal to all federal, state and local government web resources and services.